P/2018 VN2 ( Leonard )

Japanese version
Home page
Updated on May 20, 2019

---------------------------------------------------------------------

* Profile

Discovery Date November 5, 2018
Magnitude 19.0 mag
Discoverer G. J. Leonard (Mount Lemmon)

* Pictures

* Orbital Elements

Epoch 2018 June 11.0 TT = JDT 2458280.5
T 2018 June 5.29676 TT                                  MPCW
q   2.1227238            (2000.0)            P               Q
n   0.12027628     Peri.  138.74867     +0.97164100     -0.06498528
a   4.0645836      Node   226.55526     +0.02360196     +0.98334610
e   0.4777512      Incl.   18.24892     +0.23528009     +0.16972734
P   8.19
From 79 observations 2018 Nov. 5-Dec. 13, mean residual 0".6.

* Magnitudes Graph

        m1 = 14.5 + 5 log d + 10.0 log r

---------------------------------------------------------------------

The orbital elements are published on M.P.E.C. 2019-J142.
The magnitudes graphs are made with Comet for Windows.

---------------------------------------------------------------------

Copyright(C) Seiichi Yoshida (comet@aerith.net). All rights reserved.